TimeCST,TemperatureF,Dew PointF,Humidity,Sea Level PressureIn,VisibilityMPH,Wind Direction,Wind SpeedMPH,Gust SpeedMPH,PrecipitationIn,Events,Conditions,WindDirDegrees,DateUTC
12:15 AM,31.3,21.6,67,29.73,10.0,Calm,Calm,-,N/A,,Clear,0,2012-01-16 06:15:00
12:35 AM,30.7,21.2,68,29.74,10.0,Calm,Calm,-,N/A,,Clear,0,2012-01-16 06:35:00
12:55 AM,32.5,23.0,68,29.72,10.0,SE,4.6,-,N/A,,Clear,140,2012-01-16 06:55:00
1:15 AM,33.6,23.9,68,29.71,10.0,South,6.9,-,N/A,,Clear,180,2012-01-16 07:15:00
1:35 AM,34.5,23.0,63,29.72,10.0,NNW,3.5,-,N/A,,Clear,340,2012-01-16 07:35:00
1:55 AM,30.9,22.1,70,29.72,10.0,WNW,3.5,-,N/A,,Clear,290,2012-01-16 07:55:00
2:15 AM,31.1,22.1,69,29.73,10.0,West,3.5,-,N/A,,Clear,280,2012-01-16 08:15:00
2:35 AM,30.6,21.7,70,29.72,10.0,WNW,4.6,-,N/A,,Clear,290,2012-01-16 08:35:00
2:55 AM,29.5,21.9,73,29.73,10.0,NW,4.6,-,N/A,,Clear,310,2012-01-16 08:55:00
3:15 AM,34.2,24.3,67,29.74,10.0,NNW,4.6,-,N/A,,Clear,330,2012-01-16 09:15:00
3:35 AM,34.2,25.5,71,29.72,10.0,NNW,6.9,-,N/A,,Clear,340,2012-01-16 09:35:00
3:55 AM,34.3,26.1,72,29.73,10.0,NNW,6.9,-,N/A,,Clear,340,2012-01-16 09:55:00
4:15 AM,34.7,25.7,70,29.72,10.0,North,10.4,-,N/A,,Clear,350,2012-01-16 10:15:00
4:35 AM,34.3,25.3,70,29.72,10.0,North,9.2,18.4,N/A,,Clear,350,2012-01-16 10:35:00
4:55 AM,34.0,25.2,70,29.72,10.0,North,8.1,-,N/A,,Clear,350,2012-01-16 10:55:00
5:15 AM,33.8,25.0,70,29.72,10.0,North,6.9,-,N/A,,Clear,360,2012-01-16 11:15:00
5:35 AM,33.1,24.8,72,29.73,10.0,North,6.9,-,N/A,,Clear,350,2012-01-16 11:35:00
5:55 AM,32.9,24.8,72,29.73,10.0,North,5.8,-,N/A,,Clear,350,2012-01-16 11:55:00
6:15 AM,32.9,24.8,72,29.74,10.0,North,8.1,-,N/A,,Clear,350,2012-01-16 12:15:00
6:35 AM,32.9,24.8,72,29.74,10.0,North,10.4,-,N/A,,Clear,360,2012-01-16 12:35:00
6:55 AM,32.9,24.8,72,29.76,10.0,North,9.2,16.1,N/A,,Clear,350,2012-01-16 12:55:00
7:15 AM,32.4,25.0,74,29.76,10.0,North,8.1,-,N/A,,Clear,350,2012-01-16 13:15:00
7:35 AM,32.0,25.3,76,29.76,10.0,North,6.9,-,N/A,,Clear,360,2012-01-16 13:35:00
7:55 AM,31.5,24.8,76,29.76,10.0,North,8.1,-,N/A,,Clear,350,2012-01-16 13:55:00
8:15 AM,31.1,25.2,79,29.76,10.0,North,5.8,-,N/A,,Clear,360,2012-01-16 14:15:00
8:35 AM,31.6,25.5,78,29.75,10.0,North,11.5,16.1,N/A,,Clear,360,2012-01-16 14:35:00
8:55 AM,32.0,25.5,77,29.76,10.0,North,10.4,19.6,N/A,,Clear,360,2012-01-16 14:55:00
9:15 AM,32.0,25.7,78,29.77,10.0,North,10.4,18.4,N/A,,Clear,360,2012-01-16 15:15:00
9:35 AM,32.4,25.2,75,29.77,10.0,North,13.8,23.0,N/A,,Clear,360,2012-01-16 15:35:00
9:55 AM,33.1,24.8,72,29.78,10.0,North,13.8,26.5,N/A,,Clear,350,2012-01-16 15:55:00
10:15 AM,33.8,24.8,70,29.78,10.0,North,16.1,23.0,N/A,,Clear,10,2012-01-16 16:15:00
10:35 AM,34.7,24.4,66,29.80,10.0,North,13.8,21.9,N/A,,Clear,360,2012-01-16 16:35:00
10:55 AM,35.1,23.9,64,29.79,10.0,NNE,12.7,20.7,N/A,,Clear,20,2012-01-16 16:55:00
11:15 AM,36.1,23.9,61,29.77,10.0,NNE,9.2,-,N/A,,Clear,20,2012-01-16 17:15:00
11:35 AM,36.5,23.0,58,29.77,10.0,NNE,12.7,17.3,N/A,,Clear,20,2012-01-16 17:35:00
11:55 AM,36.7,22.3,56,29.77,10.0,North,11.5,23.0,N/A,,Clear,350,2012-01-16 17:55:00
12:15 PM,35.8,21.2,55,29.76,10.0,North,9.2,20.7,N/A,,Clear,10,2012-01-16 18:15:00
12:35 PM,35.8,20.7,54,29.75,10.0,North,13.8,18.4,N/A,,Clear,360,2012-01-16 18:35:00
1:15 PM,34.7,19.4,54,29.75,10.0,North,15.0,25.3,N/A,,Clear,350,2012-01-16 19:15:00
1:35 PM,34.5,18.7,52,29.76,10.0,North,17.3,27.6,N/A,,Clear,350,2012-01-16 19:35:00
1:55 PM,34.9,18.5,51,29.76,10.0,North,13.8,23.0,N/A,,Clear,350,2012-01-16 19:55:00
2:15 PM,34.7,18.1,51,29.76,10.0,North,10.4,19.6,N/A,,Clear,360,2012-01-16 20:15:00
2:35 PM,34.2,17.2,50,29.76,10.0,North,10.4,17.3,N/A,,Clear,350,2012-01-16 20:35:00
2:55 PM,33.1,15.8,49,29.76,10.0,North,13.8,19.6,N/A,,Clear,350,2012-01-16 20:55:00
3:15 PM,32.5,15.4,49,29.78,10.0,North,12.7,18.4,N/A,,Clear,350,2012-01-16 21:15:00
3:35 PM,32.0,14.9,49,29.78,10.0,North,12.7,18.4,N/A,,Clear,350,2012-01-16 21:35:00
3:55 PM,32.0,14.7,49,29.78,10.0,North,12.7,19.6,N/A,,Clear,350,2012-01-16 21:55:00
4:15 PM,32.0,14.5,49,29.79,10.0,NNW,16.1,21.9,N/A,,Clear,340,2012-01-16 22:15:00
4:35 PM,30.4,13.6,50,29.80,10.0,North,12.7,20.7,N/A,,Clear,350,2012-01-16 22:35:00
4:55 PM,28.9,13.1,52,29.81,10.0,NNW,13.8,20.7,N/A,,Clear,340,2012-01-16 22:55:00
5:15 PM,27.5,12.7,54,29.82,10.0,NNW,9.2,-,N/A,,Clear,340,2012-01-16 23:15:00
5:35 PM,26.6,12.2,55,29.84,10.0,NNW,9.2,-,N/A,,Clear,330,2012-01-16 23:35:00
5:55 PM,25.7,12.2,57,29.85,10.0,NNW,10.4,-,N/A,,Clear,330,2012-01-16 23:55:00
6:15 PM,25.3,12.2,58,29.86,10.0,NNW,10.4,-,N/A,,Clear,330,2012-01-17 00:15:00
6:35 PM,24.4,12.0,59,29.86,10.0,NNW,9.2,-,N/A,,Clear,330,2012-01-17 00:35:00
6:55 PM,24.8,11.8,58,29.87,10.0,NNW,10.4,-,N/A,,Mostly Cloudy,330,2012-01-17 00:55:00
7:15 PM,24.3,11.5,58,29.87,10.0,NNW,10.4,-,N/A,,Overcast,330,2012-01-17 01:15:00
7:35 PM,23.4,11.3,60,29.87,10.0,NNW,10.4,16.1,N/A,,Mostly Cloudy,330,2012-01-17 01:35:00
8:15 PM,22.6,11.7,63,29.89,10.0,NW,10.4,-,N/A,,Mostly Cloudy,320,2012-01-17 02:15:00
8:35 PM,21.2,11.3,66,29.89,10.0,NW,10.4,-,N/A,,Overcast,310,2012-01-17 02:35:00
8:55 PM,22.1,12.2,66,29.89,10.0,NNW,6.9,-,N/A,,Overcast,330,2012-01-17 02:55:00
9:15 PM,23.0,12.0,63,29.90,10.0,NNW,10.4,-,N/A,,Overcast,330,2012-01-17 03:15:00
9:35 PM,22.8,12.0,63,29.91,10.0,NNW,8.1,-,N/A,,Overcast,340,2012-01-17 03:35:00
9:55 PM,22.5,11.8,64,29.91,10.0,North,8.1,-,N/A,,Overcast,350,2012-01-17 03:55:00
10:15 PM,22.1,11.8,65,29.90,10.0,North,12.7,19.6,N/A,,Overcast,350,2012-01-17 04:15:00
10:35 PM,21.7,11.8,66,29.91,10.0,NNW,12.7,19.6,N/A,,Overcast,340,2012-01-17 04:35:00
10:55 PM,21.7,11.7,65,29.93,10.0,NNW,18.4,21.9,N/A,,Overcast,330,2012-01-17 04:55:00
11:15 PM,21.6,11.3,65,29.94,10.0,NNW,17.3,23.0,N/A,,Overcast,330,2012-01-17 05:15:00
11:35 PM,21.2,11.1,65,29.95,10.0,NNW,19.6,24.2,N/A,,Overcast,330,2012-01-17 05:35:00